User: anonymous
Location: Washington
(38.8950°N, 77.0370°W)
Time: 18:48:57
(UTC-04:00)
Language:

IDEFIX/ARIANE 42P - Orbit

View from above orbital plane
View from above orbital plane
View from above satellite
View from above satellite

Ground track
Ground track

The orbit data is extracted from the following two-line orbital elements,

1 27422U 02021B   14292.79719777  .00000243  00000-0  11198-3 0  6230
2 27422 098.2864 329.2784 0011723 230.3755 193.6761 14.29065350647937
Epoch (UTC): 19 October 2014 19:07:57
Eccentricity: 0.0011723
inclination: 98.2864°
perigee height: 786 km
apogee height: 803 km
right ascension of ascending node: 329.2784°
argument of perigee: 230.3755°
revolutions per day: 14.29065350
mean anomaly at epoch: 193.6761°
orbit number at epoch: 64793

The dashed part of the orbit path shows where the satellite is in the earth's shadow,  

DLR